Location: Newark
(38.8667°N, 6.9667°W)
Time: 22:43:41
(UTC+00:00)

ISS - Pass Details

Date: 26 October 2019
Orbit: 412 x 421 km, 51.6° (Epoch: 14 November)

Event Time Altitude Azimuth Distance (km) Brightness Sun altitude
Exits shadow 04:41:57 25° 130° (SE) 893 -1.7 -25.2°
Drops below altitude 10° 04:44:42 10° 76° (ENE) 1,504 0.1 -24.6°
Sets 04:47:02 0° 62° (ENE) 2,372 1.1 -24.2°
